sat.trackr.live / text

‹ back to catalog

FIREFLY-3

NORAD 62710 · 2025-009DF

PAYLOAD ACTIVE UNKNOWN

§ Identity

Operator
Country
IND
Launch date
2025-01-14
Launch site
AFWTR
Launch vehicle
Mass (kg)
RCS (m²)

External: N2YO · Heavens-Above · Gunter

§ Orbital elements

Epoch: 2026-05-25T04:35:58.323264Z

Period
96.46 min
Inclination
97.7060°
Eccentricity
0.0002666
Mean motion
14.92818964 rev/d
Perigee alt
587.3 km
Apogee alt
591.0 km
Semi-major
6,967.3 km
B*
9.7783e-5
RAAN
223.8354°
Arg perigee
222.5731°
Mean anomaly
137.5282°
Rev number
7,390

§ Raw data

FIREFLY-31 62710U 25009DF  26145.19164726  .00000956  00000+0  97783-4 0  99932 62710  97.7060 223.8354 0002666 222.5731 137.5282 14.92818964 73905

JSON: /api/v1/satellites/62710 · /tle

For live sub-satellite position, see the globe view (requires WebGL).

§ Visibility from observer

Set your observer location to see the next 7 days of passes ≥ 10°. The values pass through the URL so the page stays shareable.

No JS? Fill the form by hand. The geolocation button needs JavaScript.

§ Radio — SatNOGS DB

ModeDescriptionDownlinkUplink
FM Mode X - Transmitter 8.100 GHz
FM S-band telemetry 2.248 GHz
FM S-band telemetry 2.238 GHz
FM Mode S - Transmitter (inactive) 2.243 GHz

4 transmitters · refreshed weekly from db.satnogs.org